LTA1330 KEYW-KMCO

Flight info

Callsign LTA1330
Flight time 0h 50m
Altitude 40000
Route BUFTT1 GUFFS FERAL JOKRS3
Aircraft C25C/M-SDE2E3FGHRWXY/LB1

Departure

Time 2026-04-22 01:22
Airport Key West International Airport (KEYW)

Arrival

Time 2026-04-22 02:13
Airport Orlando International Airport (KMCO)
Time Latitude Longitude Altitude Speed Heading
2026-04-22 01:09 24.55442 -81.75666 10 ft 0 kts 359°
2026-04-22 01:20 24.55466 -81.75665 10 ft 9 kts
2026-04-22 01:20 24.55494 -81.75611 9 ft 11 kts 85°
2026-04-22 01:20 24.55522 -81.75579 10 ft 10 kts 31°
2026-04-22 01:21 24.55531 -81.75503 10 ft 14 kts 89°
2026-04-22 01:21 24.55532 -81.75399 11 ft 13 kts 90°
2026-04-22 01:21 24.55533 -81.75292 10 ft 14 kts 86°
2026-04-22 01:21 24.55544 -81.75264 10 ft 4 kts 47°
2026-04-22 01:22 24.55613 -81.75267 8 ft 10 kts 302°
2026-04-22 01:22 24.55618 -81.75443 10 ft 59 kts 269°
2026-04-22 01:22 24.55612 -81.76321 93 ft 159 kts 271°
2026-04-22 01:22 24.55575 -81.77615 1109 ft 176 kts 271°
2026-04-22 01:23 24.56054 -81.78782 2326 ft 172 kts 316°
2026-04-22 01:23 24.56992 -81.79677 3077 ft 189 kts 346°
2026-04-22 01:23 24.58343 -81.79986 3892 ft 210 kts
2026-04-22 01:23 24.59897 -81.80119 4693 ft 236 kts
2026-04-22 01:24 24.61601 -81.80234 5529 ft 255 kts 358°
2026-04-22 01:24 24.63387 -81.80371 6671 ft 260 kts 359°
2026-04-22 01:24 24.65136 -81.79860 7698 ft 266 kts 30°
2026-04-22 01:24 24.66576 -81.78553 8775 ft 272 kts 45°
2026-04-22 01:25 24.67878 -81.77001 9841 ft 278 kts 47°
2026-04-22 01:25 24.69159 -81.75403 10802 ft 284 kts 46°
2026-04-22 01:25 24.70516 -81.73787 11695 ft 293 kts 45°
2026-04-22 01:25 24.71970 -81.72073 12065 ft 320 kts 45°
2026-04-22 01:26 24.73559 -81.70208 12281 ft 347 kts 45°
2026-04-22 01:26 24.75278 -81.68214 12504 ft 367 kts 45°
2026-04-22 01:26 24.77016 -81.66185 13281 ft 369 kts 45°
2026-04-22 01:26 24.78792 -81.64114 13957 ft 373 kts 44°
2026-04-22 01:27 24.80583 -81.62020 14561 ft 377 kts 44°
2026-04-22 01:27 24.82424 -81.59941 15142 ft 380 kts 39°
2026-04-22 01:27 24.84688 -81.58470 15723 ft 376 kts 19°
2026-04-22 01:27 24.87120 -81.57498 16306 ft 378 kts 15°
2026-04-22 01:28 24.89634 -81.56623 16871 ft 380 kts 13°
2026-04-22 01:28 24.92177 -81.55764 17406 ft 384 kts 14°
2026-04-22 01:28 24.94731 -81.54833 17933 ft 387 kts 15°
2026-04-22 01:28 24.97305 -81.53880 18463 ft 390 kts 14°
2026-04-22 01:29 24.99868 -81.52951 18906 ft 393 kts 14°
2026-04-22 01:29 25.02482 -81.52017 19346 ft 396 kts 14°
2026-04-22 01:29 25.05126 -81.51062 19778 ft 399 kts 14°
2026-04-22 01:29 25.07747 -81.50111 20206 ft 402 kts 14°
2026-04-22 01:30 25.10417 -81.49141 20622 ft 405 kts 14°
2026-04-22 01:30 25.13109 -81.48169 21038 ft 408 kts 14°
2026-04-22 01:30 25.15828 -81.47182 21434 ft 411 kts 14°
2026-04-22 01:30 25.18563 -81.46193 21820 ft 414 kts 14°
2026-04-22 01:31 25.21313 -81.45192 22198 ft 417 kts 14°
2026-04-22 01:31 25.24079 -81.44191 22570 ft 420 kts 14°
2026-04-22 01:31 25.26829 -81.43191 22920 ft 422 kts 14°
2026-04-22 01:31 25.29629 -81.42174 23275 ft 425 kts 14°
2026-04-22 01:32 25.32453 -81.41148 23603 ft 427 kts 14°
2026-04-22 01:32 25.35304 -81.40110 23914 ft 430 kts 14°
2026-04-22 01:32 25.38127 -81.39085 24202 ft 431 kts 14°
2026-04-22 01:32 25.40986 -81.38041 24494 ft 432 kts 14°
2026-04-22 01:33 25.43830 -81.37013 24775 ft 433 kts 13°
2026-04-22 01:33 25.46785 -81.36438 24929 ft 429 kts 358°
2026-04-22 01:33 25.49757 -81.36728 24978 ft 428 kts 343°
2026-04-22 01:33 25.52513 -81.37835 25000 ft 413 kts 330°
2026-04-22 01:34 25.54911 -81.39440 25112 ft 404 kts 326°
2026-04-22 01:34 25.57326 -81.41085 25182 ft 404 kts 325°
2026-04-22 01:34 25.59693 -81.42716 25209 ft 399 kts 325°
2026-04-22 01:34 25.62056 -81.44342 25224 ft 398 kts 325°
2026-04-22 01:35 25.64395 -81.45943 25226 ft 398 kts 326°
2026-04-22 01:35 25.66761 -81.47567 25222 ft 398 kts 325°
2026-04-22 01:35 25.69097 -81.49169 25226 ft 399 kts 325°
2026-04-22 01:35 25.71471 -81.50804 25230 ft 399 kts 325°
2026-04-22 01:36 25.73806 -81.52406 25233 ft 399 kts 325°
2026-04-22 01:36 25.76171 -81.54034 25238 ft 399 kts 325°
2026-04-22 01:36 25.78541 -81.55662 25237 ft 399 kts 325°
2026-04-22 01:36 25.80903 -81.57289 25240 ft 399 kts 325°
2026-04-22 01:37 25.83243 -81.58901 25246 ft 399 kts 325°
2026-04-22 01:37 25.85613 -81.60532 25252 ft 399 kts 325°
2026-04-22 01:37 25.88021 -81.62082 25247 ft 402 kts 332°
2026-04-22 01:37 25.90695 -81.62970 25247 ft 407 kts 343°
2026-04-22 01:38 25.93471 -81.63646 25253 ft 407 kts 344°
2026-04-22 01:38 25.96268 -81.64257 25255 ft 408 kts 345°
2026-04-22 01:38 25.99049 -81.64883 25258 ft 407 kts 344°
2026-04-22 01:38 26.01790 -81.65531 25257 ft 408 kts 344°
2026-04-22 01:39 26.04575 -81.66194 25262 ft 408 kts 344°
2026-04-22 01:39 26.07344 -81.66831 25261 ft 408 kts 345°
2026-04-22 01:39 26.10139 -81.67478 25262 ft 408 kts 345°
2026-04-22 01:39 26.12890 -81.68118 25257 ft 408 kts 344°
2026-04-22 01:40 26.15676 -81.68771 25256 ft 409 kts 344°
2026-04-22 01:40 26.18468 -81.69422 25258 ft 409 kts 344°
2026-04-22 01:40 26.21250 -81.70068 25259 ft 405 kts 345°
2026-04-22 01:40 26.23994 -81.70709 25257 ft 401 kts 344°
2026-04-22 01:41 26.26689 -81.71337 25256 ft 398 kts 344°
2026-04-22 01:41 26.29406 -81.71976 25252 ft 396 kts 344°
2026-04-22 01:41 26.32076 -81.72597 25249 ft 394 kts 344°
2026-04-22 01:41 26.34769 -81.73229 25260 ft 392 kts 344°
2026-04-22 01:42 26.37445 -81.73853 25260 ft 391 kts 344°
2026-04-22 01:42 26.40086 -81.74472 25263 ft 390 kts 344°
2026-04-22 01:42 26.42746 -81.75095 25267 ft 389 kts 344°
2026-04-22 01:42 26.45409 -81.75718 25266 ft 389 kts 344°
2026-04-22 01:43 26.48056 -81.76340 25267 ft 388 kts 344°
2026-04-22 01:43 26.50678 -81.76938 25263 ft 389 kts 346°
2026-04-22 01:43 26.53404 -81.76994 25263 ft 395 kts 359°
2026-04-22 01:43 26.56158 -81.76850 25262 ft 394 kts 358°
2026-04-22 01:44 26.58914 -81.76719 25266 ft 394 kts 358°
2026-04-22 01:44 26.61619 -81.76579 25266 ft 394 kts 358°
2026-04-22 01:44 26.64363 -81.76428 25257 ft 395 kts 358°
2026-04-22 01:44 26.67126 -81.76290 25260 ft 397 kts 358°
2026-04-22 01:45 26.69895 -81.76148 25261 ft 399 kts 358°
2026-04-22 01:45 26.72654 -81.76007 25263 ft 400 kts 359°
2026-04-22 01:45 26.75443 -81.75861 25264 ft 402 kts 358°
2026-04-22 01:45 26.78250 -81.75715 25269 ft 403 kts 359°
2026-04-22 01:46 26.81066 -81.75571 25275 ft 404 kts 358°
2026-04-22 01:46 26.83849 -81.75425 25277 ft 405 kts 359°
2026-04-22 01:46 26.86645 -81.75281 25278 ft 391 kts 358°
2026-04-22 01:46 26.89301 -81.75135 25045 ft 370 kts 358°
2026-04-22 01:47 26.91797 -81.75006 24964 ft 347 kts 358°
2026-04-22 01:47 26.94163 -81.74888 24363 ft 344 kts 358°
2026-04-22 01:47 26.96589 -81.74769 24152 ft 347 kts 358°
2026-04-22 01:47 26.98986 -81.74642 23972 ft 341 kts 358°
2026-04-22 01:48 27.01346 -81.74516 23484 ft 342 kts 358°
2026-04-22 01:48 27.03700 -81.74396 23087 ft 339 kts 358°
2026-04-22 01:48 27.06059 -81.74235 22684 ft 337 kts 359°
2026-04-22 01:48 27.08403 -81.74074 22291 ft 335 kts 359°
2026-04-22 01:49 27.10731 -81.73921 21914 ft 333 kts 359°
2026-04-22 01:49 27.13008 -81.73780 21554 ft 331 kts 359°
2026-04-22 01:49 27.15312 -81.73632 21198 ft 329 kts 359°
2026-04-22 01:49 27.17601 -81.73481 20858 ft 327 kts
2026-04-22 01:50 27.19844 -81.73338 20528 ft 325 kts 360°
2026-04-22 01:50 27.22107 -81.73189 20199 ft 324 kts
2026-04-22 01:50 27.24339 -81.73048 19887 ft 322 kts
2026-04-22 01:50 27.26587 -81.72912 19577 ft 320 kts 358°
2026-04-22 01:51 27.28749 -81.73356 19256 ft 314 kts 340°
2026-04-22 01:51 27.30821 -81.74049 18962 ft 314 kts 342°
2026-04-22 01:51 27.32920 -81.74746 18664 ft 313 kts 341°
2026-04-22 01:51 27.35006 -81.75451 18358 ft 311 kts 341°
2026-04-22 01:52 27.37078 -81.76153 18038 ft 310 kts 342°
2026-04-22 01:52 27.39145 -81.76842 17734 ft 309 kts 342°
2026-04-22 01:52 27.41174 -81.77525 17448 ft 307 kts 342°
2026-04-22 01:52 27.43221 -81.78212 17155 ft 306 kts 342°
2026-04-22 01:53 27.45266 -81.78900 16877 ft 305 kts 342°
2026-04-22 01:53 27.47300 -81.79586 16604 ft 304 kts 342°
2026-04-22 01:53 27.48646 -81.80038 16427 ft 303 kts 342°
2026-04-22 01:53 27.51329 -81.80943 16092 ft 302 kts 342°
2026-04-22 01:54 27.52665 -81.81390 15930 ft 301 kts 342°
2026-04-22 01:54 27.55334 -81.82291 15595 ft 300 kts 342°
2026-04-22 01:54 27.56665 -81.82736 15439 ft 300 kts 342°
2026-04-22 01:54 27.58666 -81.83415 15199 ft 300 kts 342°
2026-04-22 01:55 27.60668 -81.84087 14972 ft 299 kts 342°
2026-04-22 01:55 27.62666 -81.84764 14764 ft 298 kts 343°
2026-04-22 01:55 27.64641 -81.85380 14545 ft 298 kts 349°
2026-04-22 01:55 27.66695 -81.85219 14333 ft 299 kts 14°
2026-04-22 01:56 27.68667 -81.84484 14155 ft 297 kts 19°
2026-04-22 01:56 27.70605 -81.83633 13944 ft 297 kts 21°
2026-04-22 01:56 27.72509 -81.82793 13744 ft 295 kts 20°
2026-04-22 01:56 27.74435 -81.81986 13553 ft 294 kts 19°
2026-04-22 01:57 27.76360 -81.81193 13390 ft 293 kts 19°
2026-04-22 01:57 27.78265 -81.80388 13278 ft 292 kts 20°
2026-04-22 01:57 27.80170 -81.79587 13123 ft 292 kts 20°
2026-04-22 01:57 27.82061 -81.78786 13057 ft 287 kts 19°
2026-04-22 01:58 27.83904 -81.78014 13035 ft 283 kts 20°
2026-04-22 01:58 27.85811 -81.77211 13016 ft 299 kts 19°
2026-04-22 01:58 27.87836 -81.76357 13020 ft 317 kts 20°
2026-04-22 01:58 27.89908 -81.75485 13015 ft 323 kts 19°
2026-04-22 01:59 27.92062 -81.74693 13016 ft 327 kts 11°
2026-04-22 01:59 27.94331 -81.74253 13019 ft 330 kts
2026-04-22 01:59 27.96553 -81.73781 13016 ft 323 kts 10°
2026-04-22 01:59 27.98711 -81.73322 12866 ft 310 kts 10°
2026-04-22 02:00 28.00804 -81.72787 12436 ft 304 kts 19°
2026-04-22 02:00 28.02520 -81.71511 12045 ft 286 kts 42°
2026-04-22 02:00 28.03637 -81.69763 11679 ft 271 kts 64°
2026-04-22 02:00 28.04151 -81.67765 11337 ft 258 kts 79°
2026-04-22 02:01 28.04471 -81.65806 11006 ft 248 kts 78°
2026-04-22 02:01 28.04775 -81.63897 10678 ft 244 kts 79°
2026-04-22 02:01 28.05080 -81.62022 10345 ft 245 kts 79°
2026-04-22 02:01 28.05391 -81.60116 9997 ft 245 kts 78°
2026-04-22 02:02 28.05698 -81.58228 9662 ft 242 kts 78°
2026-04-22 02:02 28.06002 -81.56365 9339 ft 239 kts 78°
2026-04-22 02:02 28.06295 -81.54546 9026 ft 236 kts 78°
2026-04-22 02:02 28.06593 -81.52720 8712 ft 234 kts 78°
2026-04-22 02:03 28.06887 -81.50910 8404 ft 232 kts 78°
2026-04-22 02:03 28.07172 -81.49138 8097 ft 230 kts 78°
2026-04-22 02:03 28.07464 -81.47349 7798 ft 229 kts 78°
2026-04-22 02:03 28.07749 -81.45580 7491 ft 227 kts 78°
2026-04-22 02:04 28.08691 -81.42269 6937 ft 221 kts 47°
2026-04-22 02:04 28.09820 -81.41189 6984 ft 205 kts 37°
2026-04-22 02:04 28.10988 -81.40265 6726 ft 205 kts 34°
2026-04-22 02:05 28.12153 -81.39370 6373 ft 203 kts 36°
2026-04-22 02:05 28.13314 -81.38463 6019 ft 202 kts 36°
2026-04-22 02:05 28.14459 -81.37554 5671 ft 199 kts 37°
2026-04-22 02:05 28.15585 -81.36668 5320 ft 195 kts 38°
2026-04-22 02:06 28.16679 -81.35805 5026 ft 190 kts 38°
2026-04-22 02:06 28.17744 -81.34963 4770 ft 184 kts 38°
2026-04-22 02:06 28.18784 -81.34145 4534 ft 178 kts 39°
2026-04-22 02:06 28.19795 -81.33345 4299 ft 175 kts 39°
2026-04-22 02:07 28.20812 -81.32623 4094 ft 176 kts 26°
2026-04-22 02:07 28.22059 -81.32509 3903 ft 178 kts
2026-04-22 02:07 28.23260 -81.32480 3672 ft 168 kts
2026-04-22 02:07 28.24408 -81.32493 3449 ft 161 kts
2026-04-22 02:08 28.25502 -81.32508 3234 ft 156 kts
2026-04-22 02:08 28.26575 -81.32517 3030 ft 152 kts
2026-04-22 02:08 28.27617 -81.32530 2829 ft 150 kts
2026-04-22 02:08 28.28655 -81.32543 2624 ft 148 kts
2026-04-22 02:09 28.29680 -81.32550 2432 ft 147 kts
2026-04-22 02:09 28.30685 -81.32563 2238 ft 139 kts
2026-04-22 02:09 28.31547 -81.32581 2065 ft 114 kts
2026-04-22 02:09 28.32317 -81.32574 1912 ft 111 kts
2026-04-22 02:10 28.33102 -81.32583 1778 ft 113 kts
2026-04-22 02:10 28.33885 -81.32595 1634 ft 114 kts
2026-04-22 02:10 28.34678 -81.32598 1480 ft 114 kts
2026-04-22 02:10 28.35472 -81.32609 1330 ft 113 kts
2026-04-22 02:11 28.36248 -81.32604 1184 ft 112 kts
2026-04-22 02:11 28.37033 -81.32631 1035 ft 113 kts
2026-04-22 02:11 28.37822 -81.32630 876 ft 113 kts
2026-04-22 02:11 28.38603 -81.32630 716 ft 111 kts
2026-04-22 02:12 28.39375 -81.32651 558 ft 109 kts
2026-04-22 02:12 28.40127 -81.32650 416 ft 111 kts
2026-04-22 02:12 28.40905 -81.32650 262 ft 111 kts
2026-04-22 02:12 28.41685 -81.32666 123 ft 110 kts
2026-04-22 02:13 28.42355 -81.32668 97 ft 84 kts
2026-04-22 02:13 28.42861 -81.32677 101 ft 60 kts 360°
2026-04-22 02:13 28.42975 -81.32710 102 ft 15 kts 198°
2026-04-22 02:13 28.42910 -81.32798 100 ft 20 kts 268°
2026-04-22 02:14 28.42859 -81.32922 99 ft 20 kts 196°
2026-04-22 02:14 28.42831 -81.33058 99 ft 19 kts 269°
2026-04-22 02:14 28.42843 -81.33139 100 ft 5 kts 293°
2026-04-22 02:14 28.42843 -81.33158 99 ft 0 kts 270°